Location: Castelvieil
(43.2846°N, 0.1958°E)
Time: 06:18:31
(UTC+00:00)

Daily predictions for brighter satellites

Satellite Brightness Start Highest point End
(mag) Time Altitude Azimuth Time Altitude Azimuth Time Altitude Azimuth
In-Cosmos 22 4.2 18:04:22 10° NNW 18:09:41 85° W 18:14:58 10° S
USA 215 4.0 18:04:08 10° NE 18:10:25 51° NNW 18:16:41 10° WSW
Tsikada Rocket 4.4 18:04:15 10° SSW 18:10:39 74° W 18:17:05 10° N
SL-4 R/B 3.6 18:09:31 10° NW 18:13:22 29° N 18:17:25 10° ENE
ARGOS Delta rocket 4.3 18:11:54 10° NNE 18:17:02 48° E 18:21:54 10° S
SKYMED 3 4.4 18:15:08 10° NNE 18:19:16 85° ESE 18:23:22 10° SSW
BREEZE-M DEB (TANK) 3.8 18:15:51 10° SW 18:19:46 71° SE 18:34:26 10° ENE
Okean O Rocket 2.2 18:17:02 10° SE 18:20:58 34° ENE 18:24:55 10° N
Cosmos 2219 3.5 18:20:06 10° NNW 18:25:53 78° WSW 18:31:37 10° SSE
CZ-2C R/B 3.1 18:24:13 10° SW 18:26:11 15° S 18:28:12 10° SSE
Cosmos 1242 Rocket 2.4 18:22:47 10° S 18:26:18 63° E 18:29:50 10° NNE
BREEZE M DEB (TANK) 4.1 18:20:51 10° SSW 18:28:34 28° SSE 18:31:25 13° E
Spot 1 3.9 18:26:08 10° NNE 18:30:23 81° ESE 18:34:29 10° SSW
SL-14 R/B 3.7 18:28:16 10° N 18:32:02 41° ENE 18:35:48 10° SSE
Cosmos 1805 3.2 18:29:18 10° S 18:33:06 61° E 18:36:57 10° NNE
Cosmos 2263 Rocket 2.7 18:27:51 10° NNW 18:33:13 40° ENE 18:38:32 10° SE
YAOGAN 1 2.6 18:30:29 10° SSE 18:34:43 58° ENE 18:38:58 10° N
Cosmos 1674 Rocket 4.0 18:32:21 10° N 18:36:32 41° ENE 18:40:43 10° SSE
Cosmos 1726 2.5 18:33:26 10° SSE 18:36:49 38° E 18:40:14 10° NNE
COBE Rocket 3.8 18:32:05 10° SSE 18:36:58 70° ENE 18:41:45 10° N
OBJECT-B 2.4 18:38:57 13° NE 18:38:57 13° NE 18:39:38 10° NE
Cosmos 2082 3.7 18:39:01 10° NNW 18:44:48 82° ENE 18:50:31 10° SSE
Cosmos 1674 4.1 18:41:32 10° NNW 18:45:04 40° W 18:48:34 10° SSW
USA 267 3.7 18:38:45 10° SE 18:45:13 62° SW 18:51:44 10° NW
Cosmos 1766 3.6 18:43:25 10° SSE 18:47:04 41° E 18:50:47 10° NNE
Cosmos 1697 Rocket 3.8 18:45:36 10° SW 18:50:58 46° WNW 18:56:23 10° NNE
Cosmos 2279 Rocket 4.3 18:51:52 10° NNW 18:58:06 72° W 19:04:19 10° S
Cosmos 2221 Rocket 3.7 18:54:30 10° N 18:59:03 83° W 19:03:35 10° S
IGS 5A 4.3 18:59:48 26° E 19:00:50 29° ENE 19:04:26 10° N
ASTEX 1 4.4 18:56:59 10° N 19:01:49 51° W 19:06:38 10° SSW
Resurs 01 Rocket 3.7 19:05:25 13° NE 19:05:25 13° NE 19:06:38 10° NNE
Cosmos 1378 Rocket 3.4 19:01:22 10° N 19:05:47 85° E 19:10:07 10° S
Cosmos 1733 4.4 19:03:42 10° SSW 19:07:16 43° WNW 19:10:53 10° N
Cosmos 968 Rocket 3.9 19:03:16 10° S 19:08:07 39° ESE 19:12:57 10° NE
Cosmos 1470 4.3 19:15:56 20° NE 19:15:56 20° NE 19:17:26 10° NNE
Cosmos 1733 Rocket 4.3 19:10:15 10° SSW 19:14:28 43° WNW 19:18:45 10° N
Cosmos 2227 Rocket 4.5 19:13:00 10° NW 19:17:26 24° WSW 19:21:52 10° SSW
CZ-4B R/B 4.2 19:16:30 10° S 19:21:38 47° W 19:26:52 10° NNW
Cosmos 2322 Rocket 3.6 19:17:33 10° SSE 19:27:51 - NE 19:19:41 20° SSE
ISS -3.7 19:19:15 10° NW 19:22:36 62° NNE 19:22:45 61° NE
CSL-04 Rocket 3.7 19:21:40 27° SE 19:24:28 59° ENE 19:29:46 10° N
Okean-O 2.8 19:24:10 43° ESE 19:25:03 51° ENE 19:29:22 10° N
Resurs 1-3 4.0 19:26:17 41° ENE 19:26:20 41° ENE 19:30:29 10° N
CZ-4 R/B 2.2 19:22:19 10° S 19:26:22 52° W 19:30:29 10° NNW
Cosmos 841 Rocket 4.0 19:21:19 10° NNW 19:26:23 57° WSW 19:31:24 10° S
Feng Yun 1-1 Rocket 4.5 19:21:32 10° S 19:27:02 70° WSW 19:32:29 10° NNW
SJ-6B 2.5 19:30:24 67° E 19:30:29 67° ENE 19:34:13 10° N
Cosmos 1980 Rocket 3.3 19:25:52 10° SW 19:31:13 44° WNW 19:36:36 10° NNE
Meteor 1-12 Rocket 4.4 19:27:14 10° S 19:33:13 84° W 19:39:17 10° N
Meteor 2-21 Rocket 4.4 19:27:24 10° S 19:33:28 83° W 19:39:33 10° N
Cosmos 1570 Rocket 4.0 19:28:28 10° NNW 19:33:40 57° ENE 19:34:49 46° ESE
Cosmos 1627 Rocket 4.4 19:30:26 10° S 19:36:25 59° E 19:42:24 10° NNE
OAO 2 Rocket 4.3 19:35:01 10° SW 19:39:12 29° S 19:39:12 29° S
USA 186 2.2 19:40:04 60° NNW 19:40:04 60° NNW 19:42:53 10° NNW
Cosmos 1428 Rocket 4.3 19:37:40 10° S 19:43:47 75° E 19:50:02 10° N
Cosmos 2195 Rocket 4.3 19:37:45 10° S 19:43:57 79° E 19:50:15 10° N
Cosmos 2278 4.2 19:40:52 10° SW 19:46:29 60° WNW 19:52:06 10° NNE
Cosmos 1437 Rocket 3.0 19:44:17 10° SSW 19:48:02 64° WNW 19:51:45 10° N
SL-16 R/B 2.0 19:44:03 10° SSW 19:49:40 73° ESE 19:55:20 10° NNE
Meteor 1-24 Rocket 3.4 19:45:08 10° N 19:50:27 75° E 19:51:24 59° SE
SL-4 R/B 2.5 19:49:01 10° NW 19:53:27 58° NNE 19:53:27 58° NNE
Cosmos 2208 Rocket 3.9 19:51:41 10° NNW 19:57:04 72° ENE 19:57:21 70° E
Okean O Rocket 3.9 19:53:57 10° SSW 19:57:22 22° W 20:00:48 10° NW
Meteor 1-22 Rocket 4.1 19:53:53 10° SSW 19:59:14 81° W 20:04:49 10° N
Cosmos 1844 Rocket 3.3 19:54:26 10° NNW 19:59:17 41° NE 19:59:17 41° NE
Cosmos 2026 Rocket 3.8 19:55:23 10° S 20:01:27 90° W 20:07:32 10° N
Cosmos 2285 Rocket 4.2 19:56:26 10° NNW 20:02:45 68° WSW 20:05:47 32° S
USA 81 3.9 19:58:00 10° N 20:03:19 88° E 20:03:45 76° SSE
Cosmos 1782 Rocket 4.0 20:06:54 58° NW 20:06:54 58° NW 20:10:41 10° N
OBJECT-B 3.9 20:09:47 11° NW 20:09:47 11° NW 20:09:57 10° NW
Cosmos 1553 Rocket 4.1 20:03:47 10° N 20:09:44 59° ENE 20:09:44 59° ENE
H-2A R/B 4.3 20:15:56 24° N 20:15:56 24° N 20:17:31 10° N
USA 281 4.5 20:16:22 25° NE 20:16:22 25° NE 20:20:58 10° N
Cosmos 2263 Rocket 3.7 20:12:00 10° NW 20:16:59 32° WSW 20:20:24 18° SSW
Cosmos 1844 4.4 20:16:02 10° NNW 20:20:06 42° NNE 20:20:06 42° NNE
Meteor 2-5 Rocket 4.4 20:16:42 10° NNW 20:22:03 51° W 20:23:46 37° SW
SPOT 1/Viking Rocket 4.3 20:32:06 45° N 20:32:06 45° N 20:35:39 10° NNW
Resurs 01 Rocket 3.6 20:42:59 25° NNW 20:42:59 25° NNW 20:44:52 10° NNW
Cosmos 2322 Rocket 4.1 21:00:59 10° SW 21:09:30 23° N 21:11:45 10° NNE
SL-16 R/B 4.5 21:30:13 10° W 21:34:22 20° NW 21:38:32 10° N
